Showing default

DRISHTI, 69010

AKA "DRISHTI" on Space-Track | Orbit data source: Space-Track

DRISHTI, 69010 is an Indian payload satellite in SSO that was launched on Sun, 03 May 2026 UTC via an FALCON 9 launch vehicle from the Air Force Western Test Range (AFWTR). Payload-class satellites include a variety of spacecraft equipped with specific instruments for various scientific and technological missions. These include communications satellites like Starlink; space stations such as the ISS; scientific satellites like the Hubble; Earth observation satellites from companies like Planet Labs, Umbra, and HawkEye 360; GPS; miniature CubeSats for education and research; and military/defense satellites.

Loading next visibility...
Identifier
69010, 2026-100AG
Orbit
SSO
Country
Flag of ININ / IND
Related business
Manufacturer
GALEYE
Mission
Operational Commercial Imaging
Bus & Motor
DRISHTI, Unknown motor
Mass
190 kg wet, 190 kg dry
Launch date (UTC)
2026-05-03 (5 months ago)
Launch vehicle
FALCON 9
Launch site
Air Force Western Test Range (AFWTR)
Object type
Payload
Rocket body
Debris
Shape & HBR
Box + 2 Pan, 1.8 m
Radar Cross Section
2.180 m², Medium (>0.1 m² and < 1m²)

Expand to show TLE details & history
Last TLE update: 17 hours ago

TLE from 17 hours ago
0 DRISHTI
1 69010U 26100AG  26265.93799881  .00001680  00000-0  79173-4 0  9996
2 69010  97.3902 161.9594 0006704  56.6195 303.5681 15.20847253 21660
Epoch: 2026-09-22T22:30Z
TLE epoch observation values (Epoch: 2026-09-22T22:30:43.097Z)
Latitude
-0.00003°
Longitude
-177.51647°
Altitude
503.826 km
Speed
7.614 km/s
True Right ascension
10h 47m 50s
True Declination
0° 00' 00"
Sunlit
Object was in daylight at epoch
Visualization orbit readout
Latitude
Unknown
Longitude
Unknown
Altitude
Unknown
Speed
Unknown
Apparent Right ascension
Unknown
Apparent Declination
Unknown
Sunlit
N/A
Visualization observer readout
Local Sidereal Time
08:35:44
Azimuth
Unknown
Elevation
Unknown
Doppler factor
Unknown
Orbital elements
Apogee altitude
504.859 km
Perigee altitude
495.636 km
Semi-major axis
6,878.385 km
Eccentricity
0.00067
Inclination
97.3902°
RAAN
161.9594°
Arg. of periapsis
56.6195°
True anomaly
303.50406°
Mean anomaly
303.5681°
Eccentric anomaly
303.53608°
Mean motion
3.80464 °/min
Orbital period
94.62 mins
BSTAR
0.000079173
Loading maneuver chart data...
Computing Atmospheric mass density...
Loading historical data...
Loading historical data...
Loading historical data...
Loading historical data...
Loading historical data...
Loading historical data...
Loading historical data...

Documentation

Showing up to 5 results
|